Snowfall_Accumulation
nan nan nan nan nan nan nan 0.0 2.4 0.0 0.0 1.8 0.7 1.0 0.0 nan 0.0 0.0 0.0 0.0 0.0 0.0 0.0 0.0 0.0 0.0 0.0 0.0 0.0 0.0 0.0 0.0 0.0 0.0 0.0 0.0 0.0 0.0 0.0 0.1 0.0 0.0 0.1 0.2
nan nan nan nan nan nan 0.0 0.1 0.0 0.0 0.0 3.1 0.9 0.2 0.0 0.0 0.0 0.0 0.0 0.0 0.0 0.0 0.0 0.0 0.0 0.0 0.0 0.0 0.0 0.0 0.0 0.0 0.0 0.0 0.0 0.0 0.0 0.0 0.0 0.0 0.0 0.0 1.4 0.1
nan nan nan nan nan nan 0.0 1.0 5.6 0.4 0.0 0.0 0.0 0.2 0.0 0.0 0.0 0.0 0.0 0.0 0.0 0.0 0.0 0.0 0.0 0.0 0.0 0.0 0.0 nan nan 0.0 0.0 0.0 0.0 0.0 0.0 0.0 0.0 0.0 0.2 0.0 0.0 0.0
nan nan nan nan nan nan 0.0 1.6 5.7 0.3 3.8 0.8 0.1 0.0 0.0 0.0 0.0 0.0 0.0 0.0 0.0 0.0 0.0 0.0 0.0 0.0 0.0 0.0 nan 0.0 0.0 0.0 0.0 0.0 0.0 0.0 0.0 0.0 0.0 0.0 0.0 0.0 0.0 0.0
nan nan nan nan nan nan 0.0 9.3 0.8 0.0 0.1 0.1 0.2 0.2 0.4 0.0 0.0 0.0 0.0 0.0 0.0 0.0 0.0 0.0 0.0 0.0 0.0 0.0 0.0 0.0 0.0 0.0 0.0 0.0 0.0 0.0 0.0 0.0 0.0 0.0 0.0 0.0 0.0 0.0
nan nan nan nan nan nan 0.0 0.0 0.0 0.0 nan 0.0 1.4 1.6 0.0 0.0 0.0 0.0 0.0 0.0 0.0 0.0 0.0 0.0 0.0 0.0 0.0 0.0 0.0 0.0 0.0 0.0 0.1 0.1 0.0 0.0 0.2 0.0 0.0 0.0 0.0 0.0 0.0 0.0
nan nan nan nan nan nan 0.0 0.0 0.0 0.2 2.6 0.3 0.1 0.0 0.0 0.0 0.0 0.0 0.0 0.0 0.0 0.0 0.0 0.0 0.0 0.0 0.0 0.0 0.0 0.0 0.0 0.0 0.0 0.7 0.2 1.8 0.0 0.0 0.0 0.0 0.0 0.0 0.0 0.0
nan nan nan nan nan nan 0.0 0.0 0.0 0.0 2.7 0.1 0.1 0.0 0.0 0.0 0.0 0.0 0.0 0.0 0.0 0.0 0.0 0.2 0.0 0.2 0.0 0.0 0.0 0.0 0.0 0.0 1.5 2.0 0.4 0.0 0.0 0.0 0.0 0.0 0.0 0.0 0.0 0.0
nan nan nan nan nan nan 0.0 0.0 0.0 0.0 0.4 0.2 0.0 0.0 0.0 0.0 0.0 0.0 0.0 0.0 0.0 0.0 0.0 0.4 0.5 1.3 0.0 0.1 0.0 0.0 0.0 0.0 0.3 1.1 0.9 2.5 0.0 0.0 0.0 0.0 0.0 0.0 0.0 0.0
nan nan nan nan nan nan 0.0 0.0 0.0 0.0 1.4 0.0 0.0 0.0 0.1 0.0 0.0 0.2 0.0 0.0 0.0 0.0 0.7 2.0 1.0 0.5 0.0 0.3 0.2 0.2 0.4 0.5 1.6 1.3 1.4 0.3 0.0 0.0 0.0 0.3 0.0 0.0 0.0 0.0
nan nan nan nan nan nan 0.0 0.0 0.0 0.0 1.2 0.0 0.0 0.0 0.0 0.0 0.0 0.4 0.0 1.6 0.6 0.6 0.5 0.5 0.4 1.2 0.2 0.1 0.0 0.0 0.2 0.8 2.6 0.9 1.5 1.9 0.0 0.0 0.0 0.0 0.0 0.0 0.0 0.0
nan nan nan nan nan nan nan 0.0 0.0 0.0 0.0 0.1 0.0 0.0 0.0 0.0 0.0 0.0 0.0 0.0 0.0 0.0 0.0 0.3 0.3 1.1 1.6 0.0 0.5 0.0 0.4 0.1 0.2 0.0 0.2 0.0 0.0 0.0 0.0 0.0 0.0 0.0 0.0 0.0
nan nan nan nan nan nan nan 0.0 0.0 0.0 0.2 0.0 0.0 0.0 0.0 0.0 0.0 0.0 0.0 0.0 0.0 0.0 0.0 0.0 0.1 0.2 0.1 1.2 0.2 0.0 0.0 0.0 0.1 0.0 0.0 0.0 0.0 0.0 0.0 0.0 0.0 0.0 0.0 0.0
nan nan nan nan nan nan nan 0.0 0.0 0.0 0.0 2.3 0.2 0.0 0.0 0.0 0.0 0.0 0.0 0.0 0.0 0.0 0.0 0.2 0.4 0.8 0.0 0.3 0.1 0.1 0.0 0.0 0.0 0.0 0.0 0.0 0.0 0.0 0.0 0.0 0.0 0.0 0.0 0.0
nan nan nan nan nan nan nan 0.0 0.0 0.0 0.0 1.4 0.1 0.0 0.0 0.0 0.0 0.0 0.0 0.0 0.0 0.0 0.1 1.1 0.4 0.0 0.2 0.2 0.1 0.2 0.0 0.0 0.2 0.1 0.0 0.0 0.0 0.0 0.0 0.0 0.0 0.0 0.0 0.0
nan nan nan nan nan nan 0.0 1.2 0.0 0.0 0.0 0.4 1.4 0.0 0.0 0.0 0.0 0.0 0.0 0.0 0.0 0.0 0.0 0.3 0.0 0.0 0.0 1.8 0.2 0.0 0.0 0.0 0.0 0.0 0.0 0.0 0.0 0.0 0.0 0.0 0.0 0.0 0.0 0.0
nan nan nan nan nan 0.0 0.0 0.0 0.0 nan 0.0 0.4 2.5 0.2 0.0 0.0 0.0 0.0 0.0 0.0 0.0 0.0 0.0 0.2 0.0 0.0 0.0 1.8 1.8 0.0 0.0 0.0 0.0 0.0 0.0 0.0 0.0 0.0 0.0 0.0 0.0 0.0 0.0 0.0
nan nan nan nan nan nan 0.0 0.0 nan nan 0.0 0.0 3.7 2.7 0.2 0.0 0.2 0.5 0.0 0.1 0.1 0.0 0.0 0.3 0.2 0.1 0.2 1.2 0.2 0.0 0.0 0.0 0.0 0.0 0.0 0.0 0.0 0.0 0.0 0.0 0.0 0.0 0.0 0.0
nan nan nan 0.0 0.0 0.0 0.0 nan nan 0.0 0.0 0.6 3.9 3.6 7.6 0.0 0.1 0.3 0.4 0.0 2.2 0.1 0.8 0.4 0.1 0.5 2.5 1.2 0.1 0.0 0.0 0.0 0.0 0.0 0.0 0.0 0.0 0.0 0.0 0.0 0.0 0.0 0.1 0.1
nan 0.0 0.0 2.5 0.1 nan nan 0.0 0.1 0.1 0.1 0.1 1.6 0.7 3.1 0.5 0.5 1.0 1.0 0.8 1.6 1.7 1.6 0.0 1.5 3.1 0.7 0.5 0.1 0.0 0.0 0.0 0.0 0.0 0.0 0.0 0.2 0.3 0.2 0.3 0.5 0.4 0.4 0.3
0.0 0.1 0.6 0.0 nan 0.0 0.1 3.3 1.8 1.0 0.9 0.5 1.2 0.6 2.8 0.2 2.8 1.7 0.7 2.0 1.9 3.2 1.0 1.4 2.0 2.1 1.4 0.8 0.5 0.1 0.0 0.0 0.0 0.0 0.0 0.0 0.1 0.1 0.3 0.3 0.3 0.4 0.5 0.9
0.0 0.0 0.0 0.0 0.3 0.8 1.4 3.8 2.3 0.7 0.9 0.8 1.1 1.1 0.5 1.4 0.1 0.8 1.8 3.1 2.8 2.4 0.8 4.5 6.3 2.7 0.2 0.1 0.1 0.1 0.1 0.0 0.1 0.1 0.2 0.2 0.3 0.6 0.4 0.6 0.9 0.9 1.1 2.5
0.0 0.1 0.1 0.1 2.4 33.0 6.7 5.2 3.5 6.8 3.6 2.4 1.7 5.2 0.6 0.4 0.1 2.6 2.1 7.7 9.6 1.2 7.9 5.2 3.9 1.2 0.3 0.3 0.1 0.2 0.1 0.2 0.1 0.2 0.2 0.2 0.3 0.3 0.3 0.7 1.0 1.4 1.8 2.6
0.4 1.4 37.5 10.5 8.7 5.2 5.1 3.3 3.6 3.6 2.6 2.0 3.1 1.4 1.2 1.7 3.5 6.4 9.3 6.0 3.1 13.1 8.3 5.7 2.8 2.1 1.8 0.9 0.9 0.4 1.7 1.6 2.2 1.9 2.2 2.3 2.4 4.0 3.7 6.0 7.7 6.2 6.8 10.1
3.1 3.0 27.5 9.6 6.6 5.1 5.1 4.3 3.3 2.3 1.4 2.4 2.7 2.0 1.4 6.6 9.5 6.0 4.3 8.5 9.1 5.4 6.9 3.9 3.5 2.7 1.9 2.0 2.1 2.6 3.1 4.3 3.8 3.5 4.1 6.6 6.1 5.0 6.2 7.0 6.9 5.6 8.0 8.6
2.5 3.3 8.6 5.9 9.6 15.0 12.4 8.6 7.3 1.7 2.5 2.2 2.0 3.8 5.0 6.5 5.9 4.0 6.0 3.0 5.0 7.1 5.7 3.6 2.8 2.8 3.1 3.4 3.4 4.3 4.2 4.1 4.2 4.3 4.3 4.5 5.5 5.4 6.0 5.0 5.0 9.2 7.5 11.2
2.1 14.4 6.7 9.5 8.6 11.8 10.2 6.9 3.7 1.4 3.4 11.4 4.3 6.6 5.4 1.5 4.6 4.2 4.1 10.9 7.7 5.9 5.2 6.7 4.8 5.1 5.6 5.1 4.9 5.9 5.2 4.7 4.6 4.3 4.0 4.5 4.5 3.6 2.0 2.6 5.4 3.2 3.8 8.6
Water_Equivalent
nan nan nan nan nan nan nan 0.00 0.64 0.00 0.00 0.38 0.17 0.17 0.00 nan 0.00 0.00 0.00 0.00 0.00 0.00 0.00 0.00 0.00 0.00 0.00 0.00 0.00 0.00 0.00 0.00 0.00 0.00 0.00 0.00 0.00 0.00 0.00 0.03 0.00 0.01 0.05 0.04
nan nan nan nan nan nan 0.00 0.04 0.00 0.00 0.00 0.49 0.15 0.04 0.00 0.00 0.00 0.00 0.00 0.00 0.00 0.00 0.00 0.00 0.00 0.00 0.00 0.00 0.00 0.00 0.00 0.00 0.01 0.00 0.00 0.00 0.00 0.00 0.00 0.00 0.00 0.00 0.39 0.03
nan nan nan nan nan nan 0.00 0.36 1.10 0.09 0.00 0.00 0.00 0.03 0.01 0.00 0.00 0.00 0.00 0.00 0.00 0.00 0.00 0.00 0.00 0.00 0.00 0.00 0.00 nan nan 0.00 0.00 0.00 0.00 0.00 0.00 0.00 0.00 0.00 0.07 0.01 0.00 0.00
nan nan nan nan nan nan 0.00 0.54 0.99 0.07 0.74 0.20 0.02 0.00 0.00 0.00 0.00 0.00 0.00 0.00 0.00 0.00 0.00 0.00 0.00 0.00 0.00 0.00 nan 0.00 0.00 0.00 0.00 0.00 0.00 0.00 0.00 0.00 0.00 0.00 0.00 0.02 0.00 0.00
nan nan nan nan nan nan 0.00 2.66 0.14 0.00 0.03 0.02 0.03 0.03 0.06 0.00 0.00 0.00 0.00 0.00 0.00 0.00 0.00 0.00 0.00 0.00 0.00 0.00 0.00 0.00 0.00 0.00 0.00 0.00 0.00 0.00 0.00 0.00 0.00 0.00 0.00 0.00 0.00 0.00
nan nan nan nan nan nan 0.00 0.00 0.00 0.00 nan 0.00 0.24 0.27 0.00 0.00 0.00 0.00 0.00 0.00 0.00 0.00 0.00 0.00 0.00 0.00 0.00 0.00 0.00 0.00 0.00 0.01 0.03 0.01 0.00 0.00 0.06 0.00 0.00 0.00 0.00 0.00 0.00 0.00
nan nan nan nan nan nan 0.00 0.00 0.00 0.05 0.43 0.05 0.01 0.00 0.00 0.00 0.00 0.00 0.00 0.00 0.00 0.00 0.00 0.00 0.00 0.00 0.00 0.00 0.00 0.00 0.00 0.00 0.02 0.20 0.07 0.36 0.00 0.00 0.00 0.00 0.00 0.00 0.00 0.00
nan nan nan nan nan nan 0.00 0.00 0.00 0.00 0.69 0.02 0.02 0.00 0.00 0.00 0.00 0.00 0.00 0.00 0.00 0.00 0.00 0.05 0.00 0.06 0.00 0.00 0.00 0.00 0.00 0.00 0.35 0.48 0.10 0.00 0.00 0.00 0.00 0.00 0.00 0.00 0.00 0.00
nan nan nan nan nan nan 0.00 0.00 0.00 0.00 0.09 0.04 0.00 0.00 0.00 0.00 0.00 0.01 0.00 0.00 0.00 0.00 0.01 0.11 0.08 0.28 0.00 0.02 0.00 0.00 0.00 0.00 0.10 0.27 0.16 0.56 0.00 0.00 0.00 0.00 0.01 0.00 0.00 0.00
nan nan nan nan nan nan 0.00 0.00 0.00 0.00 0.35 0.00 0.00 0.00 0.02 0.00 0.01 0.03 0.00 0.01 0.00 0.00 0.19 0.58 0.25 0.13 0.00 0.07 0.04 0.05 0.14 0.18 0.45 0.34 0.33 0.09 0.00 0.00 0.00 0.08 0.01 0.00 0.00 0.00
nan nan nan nan nan nan 0.00 0.00 0.00 0.00 0.31 0.00 0.00 0.00 0.00 0.00 0.00 0.08 0.00 0.26 0.12 0.14 0.14 0.16 0.12 0.38 0.06 0.03 0.00 0.00 0.04 0.22 0.72 0.28 0.40 0.42 0.00 0.00 0.01 0.01 0.00 0.00 0.00 0.00
nan nan nan nan nan nan nan 0.00 0.00 0.00 0.00 0.02 0.00 0.00 0.00 0.00 0.00 0.00 0.00 0.01 0.00 0.00 0.00 0.11 0.11 0.39 0.60 0.01 0.15 0.00 0.11 0.02 0.06 0.01 0.06 0.00 0.00 0.00 0.00 0.00 0.00 0.00 0.00 0.00
nan nan nan nan nan nan nan 0.00 0.00 0.00 0.07 0.00 0.01 0.00 0.00 0.00 0.00 0.00 0.00 0.00 0.00 0.00 0.00 0.00 0.06 0.05 0.03 0.40 0.07 0.02 0.00 0.00 0.02 0.01 0.00 0.00 0.00 0.00 0.00 0.00 0.00 0.00 0.00 0.00
nan nan nan nan nan nan nan 0.00 0.00 0.00 0.00 0.60 0.06 0.00 0.00 0.00 0.00 0.00 0.00 0.00 0.00 0.00 0.00 0.06 0.14 0.30 0.00 0.11 0.05 0.04 0.00 0.00 0.00 0.00 0.00 0.00 0.00 0.00 0.00 0.00 0.00 0.00 0.00 0.00
nan nan nan nan nan nan nan 0.00 0.00 0.00 0.01 0.32 0.05 0.00 0.00 0.00 0.00 0.00 0.00 0.00 0.00 0.00 0.04 0.43 0.16 0.00 0.06 0.07 0.04 0.06 0.00 0.00 0.06 0.04 0.00 0.00 0.00 0.00 0.00 0.00 0.00 0.00 0.00 0.00
nan nan nan nan nan nan 0.00 0.36 0.00 0.00 0.00 0.16 0.38 0.00 0.00 0.00 0.00 0.00 0.00 0.00 0.00 0.00 0.01 0.13 0.01 0.00 0.01 0.64 0.09 0.00 0.00 0.00 0.00 0.00 0.00 0.00 0.00 0.00 0.00 0.00 0.00 0.00 0.00 0.00
nan nan nan nan nan 0.00 0.00 0.01 0.00 nan 0.00 0.14 0.67 0.10 0.00 0.00 0.00 0.00 0.00 0.00 0.00 0.00 0.01 0.07 0.01 0.00 0.00 0.48 0.36 0.00 0.00 0.00 0.00 0.00 0.00 0.00 0.00 0.00 0.00 0.00 0.00 0.00 0.00 0.00
nan nan nan nan nan nan 0.00 0.00 nan nan 0.00 0.00 0.88 0.69 0.09 0.00 0.07 0.18 0.00 0.03 0.03 0.01 0.00 0.10 0.07 0.02 0.09 0.26 0.03 0.00 0.00 0.00 0.00 0.00 0.00 0.00 0.00 0.00 0.00 0.00 0.00 0.00 0.00 0.01
nan nan nan 0.00 0.00 0.00 0.00 nan nan 0.00 0.00 0.15 1.30 0.98 1.86 0.00 0.02 0.10 0.12 0.01 0.54 0.03 0.25 0.13 0.03 0.15 0.44 0.18 0.02 0.00 0.00 0.00 0.00 0.00 0.00 0.00 0.00 0.00 0.00 0.00 0.00 0.00 0.02 0.01
nan 0.00 0.00 0.70 0.02 nan nan 0.00 0.06 0.04 0.03 0.04 0.44 0.16 0.86 0.14 0.18 0.30 0.26 0.23 0.43 0.43 0.40 0.01 0.39 0.63 0.14 0.09 0.02 0.00 0.00 0.00 0.00 0.00 0.00 0.00 0.03 0.04 0.02 0.05 0.07 0.06 0.05 0.04
0.00 0.05 0.22 0.00 nan 0.00 0.03 0.67 0.36 0.21 0.25 0.11 0.25 0.14 0.74 0.06 0.82 0.59 0.23 0.65 0.60 0.91 0.25 0.40 0.41 0.33 0.20 0.16 0.08 0.02 0.00 0.00 0.00 0.00 0.01 0.01 0.02 0.02 0.04 0.04 0.04 0.05 0.06 0.09
0.00 0.00 0.00 0.00 0.05 0.19 0.39 1.13 0.70 0.21 0.18 0.21 0.32 0.27 0.12 0.36 0.04 0.26 0.59 0.83 0.79 0.57 0.17 1.34 1.16 0.38 0.03 0.01 0.01 0.02 0.01 0.01 0.01 0.02 0.04 0.04 0.05 0.09 0.06 0.07 0.10 0.10 0.12 0.43
0.00 0.02 0.03 0.04 0.84 4.66 1.86 1.25 0.96 2.01 0.90 0.81 0.59 1.97 0.21 0.16 0.04 0.98 0.64 2.06 2.18 0.28 1.88 0.78 0.58 0.16 0.04 0.05 0.01 0.02 0.02 0.02 0.01 0.03 0.02 0.03 0.04 0.03 0.04 0.09 0.12 0.22 0.23 0.30
0.15 0.54 4.98 2.57 2.25 1.11 1.00 0.67 0.92 1.02 0.90 0.61 0.72 0.56 0.42 0.63 0.99 1.66 2.27 1.51 0.87 2.30 1.34 0.91 0.44 0.29 0.28 0.14 0.15 0.07 0.27 0.27 0.34 0.26 0.31 0.34 0.36 0.57 0.56 0.95 1.21 0.91 0.85 1.22
0.67 0.69 3.49 1.81 1.29 1.12 1.26 1.26 0.97 0.62 0.41 0.56 0.70 0.57 0.30 1.55 2.25 1.34 1.01 1.82 1.76 0.93 1.10 0.66 0.59 0.37 0.26 0.27 0.29 0.38 0.45 0.68 0.55 0.49 0.57 0.97 0.86 0.69 0.80 0.93 0.90 0.71 1.09 1.11
0.52 0.61 1.54 1.21 2.09 3.22 3.28 2.38 2.11 0.41 0.61 0.55 0.50 0.88 1.14 1.34 1.20 0.79 1.09 0.57 0.77 1.16 0.85 0.56 0.39 0.34 0.39 0.43 0.46 0.58 0.59 0.54 0.53 0.53 0.52 0.55 0.70 0.68 0.66 0.58 0.60 1.32 1.13 1.63
0.47 2.62 1.31 1.87 1.82 2.38 2.17 1.58 0.80 0.28 0.95 2.82 0.91 1.16 0.78 0.31 0.86 0.55 0.57 1.78 1.08 0.81 0.61 0.77 0.52 0.55 0.63 0.60 0.60 0.80 0.66 0.57 0.56 0.52 0.48 0.53 0.53 0.43 0.22 0.30 0.54 0.33 0.39 1.27
SL_Ratio
nan nan nan nan nan nan nan nan 3.8 nan nan 4.7 4.4 6.0 nan nan nan nan nan nan nan nan nan nan nan nan nan nan nan nan nan nan 3.3 nan nan nan nan nan nan 2.8 nan 2.7 3.2 3.7
nan nan nan nan nan nan nan 2.7 nan nan nan 6.4 5.7 6.0 nan nan nan nan nan nan nan nan nan nan nan nan nan nan nan nan nan nan 2.9 3.1 nan nan nan nan nan nan 2.7 nan 3.6 3.5
nan nan nan nan nan nan nan 2.7 5.1 4.3 2.0 nan nan 6.5 6.7 nan nan nan nan nan nan nan nan nan nan nan nan nan nan nan nan nan nan 0.0 nan nan nan nan nan nan 3.1 2.7 nan nan
nan nan nan nan nan nan nan 2.9 5.8 4.8 5.2 4.1 5.6 nan nan nan nan nan nan nan nan nan nan nan nan nan nan nan nan nan nan nan nan nan nan nan nan nan nan nan nan 3.1 nan nan
nan nan nan nan nan nan nan 3.5 5.3 nan 5.4 5.7 5.0 5.6 6.3 nan nan nan nan nan nan nan nan nan nan nan nan nan nan nan nan nan nan nan nan nan nan nan nan nan nan nan nan nan
nan nan nan nan nan nan nan nan nan nan nan 5.7 5.9 5.9 nan nan nan nan nan nan nan nan nan nan nan nan nan nan nan nan nan 2.6 3.2 5.9 nan nan 3.6 nan nan nan nan nan nan nan
nan nan nan nan nan nan nan nan nan 4.9 6.1 6.1 6.2 10.0 nan 0.0 nan nan nan nan nan nan nan nan nan nan nan nan nan nan nan nan 2.8 3.7 3.5 5.0 4.7 nan nan nan nan nan nan nan
nan nan nan nan nan nan nan nan nan 4.0 3.9 5.7 5.8 nan nan nan nan nan nan nan nan nan nan 4.3 nan 2.8 2.9 nan nan nan nan 2.0 4.2 4.2 4.2 4.0 nan nan nan nan nan nan nan nan
nan nan nan nan nan nan nan nan nan nan 4.8 5.3 nan nan 3.3 5.0 nan 5.9 nan nan nan nan 2.6 4.0 6.2 4.6 nan 3.6 nan nan nan nan 3.0 4.2 5.8 4.4 nan nan nan nan 3.3 nan nan nan
nan nan nan nan nan nan nan nan nan 0.0 4.1 nan nan nan 5.5 nan 5.6 5.9 6.7 5.4 5.8 nan 4.0 3.5 4.0 3.6 nan 3.8 5.6 3.7 3.0 2.8 3.5 3.9 4.4 3.5 nan nan nan 3.2 3.3 nan nan nan
nan nan nan nan nan nan nan nan nan nan 3.9 nan nan nan nan nan nan 5.3 10.0 6.2 5.2 4.3 4.0 3.1 3.3 3.1 2.8 3.2 nan nan 5.0 3.9 3.7 3.3 3.8 4.4 nan nan 4.5 2.5 nan nan nan nan
nan nan nan nan nan nan nan 6.7 nan nan nan 5.2 nan nan nan nan nan nan nan 5.8 nan nan 2.7 2.5 2.6 2.9 2.7 3.0 3.4 nan 3.9 3.4 3.1 3.2 3.1 nan nan nan nan nan nan nan nan nan
nan nan nan nan nan nan nan nan nan nan 2.9 3.3 4.7 nan nan nan nan nan 4.3 2.2 nan nan nan nan 2.5 3.2 2.5 2.9 2.7 2.6 nan nan 2.5 2.5 nan nan nan nan nan nan nan nan nan nan
nan nan nan nan nan nan nan nan nan nan 0.0 3.9 4.0 nan nan nan nan nan nan nan nan nan nan 2.5 2.5 2.6 nan 2.8 2.5 2.5 nan nan nan nan nan nan nan nan nan nan nan nan nan nan
nan nan nan nan nan nan nan nan nan nan 3.6 4.4 2.7 nan nan nan nan nan nan nan nan nan 2.5 2.5 2.6 2.7 2.6 2.5 2.6 2.5 nan nan 2.6 2.5 nan nan nan nan nan nan nan nan nan nan
nan nan nan nan nan nan nan 3.2 nan nan nan 2.6 3.7 0.0 nan nan nan nan nan nan nan nan 2.8 2.5 2.5 nan 2.9 2.7 2.7 nan nan nan nan nan nan nan nan nan nan nan nan nan nan nan
nan nan nan nan nan nan 3.8 4.6 nan nan nan 2.5 3.8 2.6 nan nan nan nan nan nan nan nan 2.4 2.5 2.4 2.7 2.5 3.8 5.0 5.7 nan nan nan nan nan nan nan nan nan nan nan nan nan nan
nan nan nan nan nan nan nan nan nan nan nan 2.0 4.2 3.9 2.5 nan 2.5 2.9 nan 2.5 2.5 2.7 5.0 3.1 2.5 2.5 2.5 4.4 5.2 3.3 nan nan nan nan nan nan nan nan nan nan nan nan 5.0 2.6
nan nan nan nan nan nan nan nan nan nan 6.0 3.9 3.0 3.7 4.1 nan 2.5 2.5 3.2 2.5 4.1 4.2 3.3 3.1 2.5 3.1 5.6 6.9 5.7 6.3 nan 5.0 nan nan nan nan nan nan 10.0 5.0 5.7 5.0 4.9 6.3
nan nan 3.3 3.6 2.5 nan nan 2.9 2.6 2.7 2.5 2.6 3.7 4.7 3.6 3.6 2.6 3.3 3.8 3.4 3.8 3.9 3.9 4.8 3.9 4.9 5.3 5.0 5.2 nan nan nan nan nan nan 5.0 6.2 6.4 6.7 7.1 7.0 7.1 7.4 7.9
nan 2.6 2.6 nan nan nan 2.7 5.0 5.0 4.8 3.6 4.6 4.8 4.5 3.7 2.7 3.3 2.9 3.2 3.2 3.3 3.5 4.1 3.6 4.9 6.3 6.7 5.1 5.7 5.7 6.0 6.7 0.0 5.7 6.3 6.7 6.9 6.6 6.7 7.4 7.3 8.1 8.7 9.3
nan 2.9 nan 2.5 6.0 4.2 3.5 3.4 3.3 3.5 4.7 4.0 3.3 4.2 4.4 4.0 2.5 3.2 3.0 3.7 3.6 4.1 4.9 3.3 5.4 7.2 7.0 6.8 6.8 6.0 6.5 6.7 7.1 6.0 6.3 6.5 6.4 7.0 7.5 8.1 8.6 9.3 9.4 5.7
nan 2.5 2.4 2.5 2.8 7.1 3.6 4.2 3.6 3.4 4.1 3.0 2.8 2.6 3.0 2.6 2.5 2.7 3.3 3.7 4.4 4.3 4.2 6.7 6.8 7.3 6.2 6.4 7.0 7.4 7.1 7.3 7.4 7.8 7.5 7.8 8.3 7.9 8.2 7.8 8.3 6.5 8.0 8.7
2.7 2.7 7.5 4.1 3.9 4.7 5.1 4.9 3.9 3.5 2.9 3.2 4.3 2.5 2.8 2.8 3.5 3.8 4.1 4.0 3.5 5.7 6.2 6.3 6.3 7.1 6.4 6.3 6.3 5.6 6.4 6.0 6.5 7.2 7.0 7.0 6.8 7.1 6.5 6.3 6.4 6.8 8.0 8.3
4.6 4.3 7.9 5.3 5.1 4.6 4.0 3.4 3.3 3.7 3.4 4.2 3.8 3.4 4.8 4.2 4.2 4.5 4.3 4.7 5.2 5.8 6.2 5.9 5.9 7.4 7.4 7.5 7.2 6.8 6.8 6.3 6.8 7.2 7.1 6.8 7.1 7.2 7.8 7.6 7.7 7.9 7.4 7.7
4.8 5.4 5.6 4.9 4.6 4.6 3.8 3.6 3.4 4.1 4.0 4.0 4.1 4.3 4.3 4.9 4.9 5.1 5.5 5.4 6.6 6.1 6.7 6.4 7.2 8.0 8.0 7.7 7.5 7.4 7.2 7.6 7.9 8.1 8.2 8.1 7.8 7.9 9.1 8.6 8.3 6.9 6.7 6.9
4.5 5.5 5.1 5.0 4.7 5.0 4.7 4.4 4.7 5.1 3.6 4.0 4.7 5.7 6.9 4.7 5.3 7.6 7.3 6.1 7.1 7.3 8.6 8.8 9.2 9.2 8.9 8.4 8.1 7.4 7.9 8.2 8.3 8.3 8.3 8.4 8.4 8.3 9.1 8.7 10.0 9.7 9.7 6.8